#timestamp,LO_Frequency,Hit,StdDev 
1558173615.7,286046996.2,N
1558173635.6,286046993.4,N
1558173655.4,286046994.2,N
1558173675.2,286046994.4,N
1558173695.0,286046993.5,N
1558173696.0,286046993.5,N
1558173715.8,286046995.8,N
1558173735.6,286046993.4,N
1558173755.4,286046994.0,N
1558173775.3,286046991.8,N
1558173795.1,286046993.6,N
1558173815.8,286046996.4,N
1558173835.7,286046996.0,N
1558173855.5,286046994.3,N
1558173875.3,286046992.1,N
1558173895.2,286046993.1,N
1558173915.9,286046993.5,N
1558173935.7,286046996.2,N
1558173955.5,286046993.8,N
1558173975.4,286046997.2,N
1558173995.2,286046995.4,N
1558174015.0,286046994.6,N
1558174015.9,286046994.6,N
1558174035.8,286046993.6,Y
1558174055.6,286046997.0,P
1558174075.4,286046996.7,P
1558174095.3,286046995.5,P
1558174115.1,286046995.2,Y
1558174135.8,286047001.2,P
1558174155.7,286046996.8,N
1558174175.5,286046995.5,N
1558174195.3,286046993.4,N
1558174215.2,286046997.9,N
1558174235.9,286046995.1,N
1558174255.7,286046995.8,N
1558174275.6,286046994.9,N
1558174295.4,286046996.2,N
1558174315.2,286046994.2,N
1558174335.1,286046991.9,Y
1558174336.0,286046991.9,P
1558174355.8,286046997.2,N
1558174375.6,286046996.8,N
1558174395.5,286046995.9,N
1558174415.3,286046994.1,Y
1558174435.1,286046996.8,P
1558174455.9,286046995.1,P
1558174475.7,286046992.3,P
1558174495.5,286046990.6,Y
1558174515.4,286046994.1,P
1558174535.2,286046992.3,P
1558174555.0,286046990.6,P
1558174555.9,286046990.6,Y
1558174575.8,286046999.7,P
1558174595.6,286047002.3,N
1558174615.4,286047001.7,N
1558174635.2,286047002.8,N
1558174655.1,286047005.7,N
1558174656.0,286047005.7,N
1558174675.8,286047006.1,N
1558174695.6,286047008.4,N
1558174715.5,286047009.9,N
1558174735.3,286047008.1,N
1558174755.1,286047007.3,N
1558174775.9,286047003.3,N
1558174795.7,286047002.0,N
1558174815.5,286047000.7,N
1558174835.4,286046997.3,N
1558174855.2,286046996.7,N
1558174875.0,286046995.7,N
1558174875.9,286046995.7,N
1558174895.7,286046993.7,N
1558174915.6,286046992.0,N
1558174935.4,286046993.2,N
1558174955.2,286046991.3,N
1558174975.1,286046989.2,N
1558174976.0,286046989.2,N
1558174995.8,286046986.9,N
1558175015.6,286046988.1,N
1558175035.5,286046983.7,N
1558175055.3,286046984.7,N
1558175075.1,286046983.1,N
1558175095.9,286046981.2,N
1558175115.7,286046981.8,N
1558175135.5,286046979.7,N
1558175155.3,286046977.6,N
1558175175.2,286046977.6,N
1558175195.0,286046978.2,N
1558175195.9,286046978.2,N
1558175215.7,286046977.1,N
1558175235.6,286046975.3,N
1558175255.4,286046975.3,N
1558175275.2,286046975.0,N
1558175295.1,286046975.1,N
1558175296.0,286046975.1,N
1558175315.8,286046971.4,Y
1558175335.6,286046985.6,P
1558175355.5,286046985.7,P
1558175375.3,286046985.3,P
1558175395.1,286046988.3,Y
1558175415.9,286047000.6,P
1558175435.7,286046997.7,N
1558175455.5,286046996.7,N
1558175475.4,286046997.6,N
1558175495.2,286046996.1,N
1558175515.0,286046993.7,N
1558175515.9,286046993.7,N
1558175535.8,286046994.0,N
1558175555.6,286046994.4,N
1558175575.4,286046990.6,N
1558175595.2,286046990.8,N
1558175615.1,286046989.4,N
1558175616.0,286046989.4,N
1558175635.8,286046987.3,Y
1558175655.7,286046994.4,P
1558175675.5,286046992.5,P
1558175695.3,286046992.1,P
1558175715.2,286046990.3,Y
1558175735.9,286046997.4,P
1558175755.7,286046996.6,N
1558175775.5,286046999.3,N
1558175795.4,286046998.5,N
1558175815.2,286047000.4,N
1558175835.0,286046998.7,N
1558175835.9,286046998.7,N
1558175855.8,286046997.1,N
1558175875.6,286046995.2,N
1558175895.4,286046995.3,N
1558175915.3,286046995.3,N
1558175935.1,286046993.8,Y
1558175936.0,286046993.8,P
1558175955.8,286046998.0,N
1558175975.7,286046995.7,N
1558175995.5,286046994.1,Y
1558176015.3,286046996.7,P
1558176035.2,286046999.6,N
1558176055.9,286046999.4,N
1558176075.7,286046997.5,N
1558176095.6,286046995.1,Y
1558176115.4,286046996.8,P
1558176135.2,286046997.5,P
1558176155.1,286046995.4,P
1558176156.0,286046995.4,Y
1558176175.8,286046999.3,P
1558176195.6,286046996.5,N
1558176215.5,286046995.0,P
1558176235.3,286046993.3,Y
1558176255.1,286046996.5,P
1558176275.9,286046996.8,P
1558176295.7,286046997.3,P
1558176315.5,286046995.0,Y
1558176335.4,286046999.4,P
1558176355.2,286046999.0,N
1558176375.0,286046999.5,N
1558176375.9,286046999.5,N
1558176395.8,286046998.9,N
1558176415.6,286046999.6,N
1558176435.4,286046997.5,N
1558176455.3,286046995.6,Y
1558176475.1,286046995.0,P
1558176476.0,286046995.0,N
1558176495.8,286046996.2,N
1558176515.7,286046993.6,Y
1558176535.5,286046997.8,P
1558176555.3,286046994.9,P
1558176575.2,286046995.0,P
1558176595.9,286046995.2,Y
1558176615.7,286047000.8,P
1558176635.6,286047000.9,N
1558176655.4,286047000.9,N
1558176675.2,286047000.6,N
1558176695.0,286046998.6,N
1558176695.9,286046998.6,N
1558176715.8,286046997.1,N
1558176735.6,286046997.3,N
1558176755.4,286046995.1,N
1558176775.3,286046995.3,N
1558176795.1,286046993.3,Y
1558176815.8,286046997.6,P
1558176835.7,286046996.9,P
1558176855.5,286046997.0,P
1558176875.3,286046995.0,Y
1558176895.2,286046997.1,P
1558176915.0,286047000.3,N
1558176915.9,286047000.3,N
1558176935.7,286047001.1,N
1558176955.6,286046998.5,N
1558176975.4,286046997.0,N
1558176995.2,286046995.1,Y
1558177015.1,286046998.0,P
1558177016.0,286046998.0,P
1558177035.8,286046995.8,P
1558177055.6,286046993.5,Y
1558177075.5,286046997.5,P
1558177095.3,286046997.9,P
1558177115.1,286046995.5,P
1558177135.9,286046994.2,Y
1558177155.7,286046994.9,P
1558177175.5,286046995.4,P
1558177195.4,286046996.0,P
